Погода в Нейпервилле

США     41°46′40″N   88°09′13″W
темп.,
°C
ветер,
м/с
пор.,
м/с
влажн.,
%
обл.,
%
осадки,
мм/ч
давл.,
гПа
погр.,
м
31 июля, сб
сб3101:00+18с1168100 0.0 101911
04:00+17ссв1170100 0.0 101913
07:00+15с22825 0.0 101942
10:00+20зюз226929 0.0 1018459
13:00+23зюз336414 0.0 1017989
16:00+23з347734 0.2 1015760
19:00+22з47840 0.4 1014379
22:00+18з36940 0.1 1014113
1 августа, вс
вс101:00+16з37945 0.1 1014129
04:00+15з37970 0.6 1014137
07:00+17сз25950 0.6 1014159
10:00+22с45770 0.1 1015643
13:00+25ссв56601 0.8 10151513
16:00+24ссз67620 0.0 10161375
19:00+20с48740 0.0 1017241
22:00+16ссв35770 0.0 101869
2 августа, пн
пн201:00+14с34890 0.0 101954
04:00+14с34904 0.0 101951
07:00+16ссв22870 0.0 102049
10:00+21ссв12670 0.1 1020904
13:00+23ссз345964 0.6 10191531
16:00+22всв236247 0.3 1019918
19:00+21юв117226 0.4 101816
22:00+15ююз11810 0.0 101911
3 августа, вт
вт301:00+14ююз01790 0.0 101911
04:00+13зюз11800 0.0 101810
07:00+14сз23879 0.0 102061
10:00+20сз23695 0.0 1020473
13:00+24зсз125780 0.0 10191187
16:00+25з22567 0.0 10181130
19:00+22з22775 0.3 101742
22:00+18з22875 0.0 101814
4 августа, ср
ср401:00+16з22910 0.0 101922
04:00+15зсз22911 0.0 101913
07:00+16зсз23900 0.0 102073
10:00+22з22730 0.0 1021400
13:00+26зюз22645 0.0 10201068
16:00+26зюз4464100 0.1 10191265
19:00+24ююз228064 1.1 101924
22:00+19юз2291100 0.1 102013